Location: Sungai Bunut
(2.6333°N, 113.7333°E)
Time: 15:46:02
(UTC+00:00)

Altair - Pass Details

Date: 08 December 2023
Orbit: 1501 x 1682 km, 47.2° (Epoch: 24 February)

Event Time Altitude Azimuth Distance (km) Brightness Sun altitude
Rises 08:25:50 0° 321° (NW) 4,623 10.2 24.3°
Reaches altitude 10° 08:28:49 10° 321° (NW) 3,641 9.7 23.6°
Maximum altitude 08:37:59 88° 51° (NE) 1,513 7.9 21.6°
Drops below altitude 10° 08:47:21 10° 140° (SE) 3,716 9.4 19.4°
Sets 08:50:26 0° 140° (SE) 4,722 9.9 18.7°
